Location: Staunton
(38.1490°N, 79.0720°W)
Time: 13:34:36
(UTC-04:00)

N. Korean satellite - Pass Details

Date: 19 September 2021
Orbit: 450 x 495 km, 97.3° (Epoch: 15 October)

Event Time Altitude Azimuth Distance (km) Brightness Sun altitude
Rises 05:30:08 0° 35° (NE) 2,507 11.0 -18.5°
Reaches altitude 10° 05:33:13 10° 66° (ENE) 1,636 10.5 -17.9°
Maximum altitude 05:34:47 13° 93° (E) 1,490 10.1 -17.7°
Drops below altitude 10° 05:36:21 10° 119° (ESE) 1,642 9.9 -17.4°
Sets 05:39:27 0° 150° (SSE) 2,527 10.4 -16.8°
